Wetbulb
77.88 76.81 76.37 77.26 75.54 75.63 75.22 75.56 78.74 79.01 79.24 79.56 79.82 79.72 79.44 77.77 75.91 72.97 72.69 69.16 69.58 67.40
77.52 78.31 77.26 78.39 77.99 76.64 78.21 76.56 78.21 78.75 79.11 79.80 79.92 79.57 79.00 77.96 76.32 74.41 73.36 72.28 70.46 68.35
76.68 77.63 77.80 77.71 77.70 78.02 78.20 78.57 77.86 78.59 78.78 79.33 79.59 79.60 79.19 77.84 77.30 75.22 73.86 72.48 71.47 70.15
76.42 76.88 77.28 76.82 77.41 77.77 78.22 78.94 78.58 78.88 78.92 78.89 79.05 79.30 78.72 78.59 77.88 76.17 75.56 73.91 72.29 71.02
76.38 76.25 76.12 76.26 76.56 77.39 77.66 78.38 78.33 78.31 78.68 78.81 78.84 79.02 78.52 77.51 77.17 76.84 75.98 74.90 73.54 71.93
76.34 76.18 76.25 76.39 76.60 76.88 77.17 77.58 77.47 77.68 77.74 78.04 78.12 78.07 78.28 77.93 77.27 77.43 77.19 76.52 74.82 73.82
75.79 76.15 76.35 77.19 77.77 77.19 77.50 77.22 77.14 77.20 77.55 77.66 77.70 77.61 77.64 77.54 77.35 77.36 77.53 77.43 76.20 74.93
77.83 77.93 77.87 78.41 78.14 78.07 78.00 77.41 77.13 77.00 77.07 77.29 77.14 76.66 77.07 77.23 76.97 76.89 76.87 77.36 76.76 75.78
78.69 78.66 78.95 79.10 79.11 78.94 78.14 77.74 78.03 77.08 76.52 76.15 75.80 68.56 67.11 72.02 75.58 76.05 76.34 76.23 76.83 76.72
78.63 78.52 78.87 78.90 78.70 78.31 78.08 78.52 77.96 77.20 76.98 76.52 76.52 66.00 63.77 66.57 75.02 74.57 75.12 76.32 76.51 76.15
78.24 78.19 78.87 78.91 78.75 79.20 78.09 77.93 77.52 77.09 77.62 76.91 76.70 64.96 62.72 64.10 74.62 75.07 75.79 75.83 76.41 77.73
78.00 78.00 78.37 78.36 78.71 78.86 78.15 77.92 77.50 77.39 78.07 77.60 77.67 62.73 62.26 65.54 74.81 74.63 75.15 76.72 78.21 78.38
78.48 78.37 78.27 78.61 79.07 79.20 77.67 77.93 76.80 77.78 78.75 73.92 78.37 64.52 59.83 64.47 74.95 74.57 75.04 77.71 78.17 68.21
78.22 78.58 78.94 79.14 79.31 78.80 77.81 77.60 78.43 78.21 79.15 78.90 77.38 77.36 58.47 58.47 74.96 74.75 75.03 75.11 75.37 75.99
MSLP
1015.02 1015.07 1015.24 1015.51 1015.19 1015.62 1015.54 1015.91 1016.35 1016.78 1016.95 1017.08 1017.25 1017.50 1017.95 1018.04 1018.17 1018.58 1018.54 1018.82 1018.84 1018.39
1014.62 1014.75 1014.60 1014.89 1015.57 1015.66 1015.87 1015.78 1016.42 1016.43 1016.73 1016.92 1017.14 1017.37 1017.80 1017.77 1018.37 1018.69 1018.77 1018.82 1018.96 1018.74
1013.99 1014.39 1014.49 1014.85 1015.25 1015.37 1015.65 1016.03 1016.11 1016.36 1016.50 1016.79 1016.95 1017.15 1017.66 1017.66 1018.17 1018.53 1018.51 1018.45 1018.73 1018.93
1013.20 1013.72 1014.21 1014.40 1014.83 1015.24 1015.66 1015.91 1016.07 1016.28 1016.37 1016.55 1016.76 1016.97 1017.36 1017.60 1017.67 1018.13 1018.13 1018.33 1018.51 1018.69
1012.56 1013.01 1013.41 1013.85 1014.13 1014.64 1015.09 1015.48 1015.75 1015.93 1016.08 1016.25 1016.41 1016.55 1016.86 1017.10 1017.04 1017.47 1017.60 1017.74 1018.00 1018.14
1011.61 1012.18 1012.55 1012.96 1013.48 1013.95 1014.39 1014.77 1015.04 1015.43 1015.62 1015.78 1015.96 1016.12 1016.29 1016.55 1016.62 1016.67 1016.89 1017.00 1017.24 1017.42
1010.68 1011.20 1011.71 1012.25 1012.75 1013.23 1013.69 1014.10 1014.36 1014.69 1014.99 1015.22 1015.46 1015.64 1015.71 1015.81 1016.04 1016.09 1016.09 1016.37 1016.57 1016.69
1009.73 1010.49 1011.01 1011.41 1011.97 1012.49 1012.99 1013.35 1013.71 1014.02 1014.29 1014.51 1014.77 1014.92 1015.07 1015.15 1015.17 1015.24 1015.26 1015.42 1015.66 1015.86
1008.83 1009.47 1010.11 1010.72 1011.13 1011.73 1012.21 1012.68 1013.01 1013.23 1013.49 1013.63 1013.75 1013.84 1014.39 1014.69 1014.36 1014.35 1014.37 1014.42 1014.41 1014.68
1007.95 1008.45 1009.05 1009.81 1010.40 1010.76 1011.34 1011.92 1012.26 1012.49 1012.73 1012.81 1012.99 1013.35 1013.69 1013.99 1014.15 1013.81 1013.47 1013.43 1013.47 1013.22
1007.01 1007.57 1008.15 1008.78 1009.34 1009.89 1010.42 1010.93 1011.33 1011.61 1011.88 1012.11 1012.13 1012.53 1012.97 1013.21 1013.45 1013.22 1012.91 1012.60 1012.35 1012.04
1005.63 1006.41 1007.21 1007.77 1008.32 1008.87 1009.42 1009.83 1010.27 1010.65 1010.88 1011.09 1011.20 1011.55 1012.14 1012.62 1012.51 1012.07 1011.76 1011.55 1011.30 1011.17
1004.97 1005.58 1006.11 1006.66 1007.36 1007.98 1008.49 1008.75 1009.06 1009.41 1009.77 1010.04 1010.21 1010.67 1011.12 1011.63 1011.37 1010.73 1010.35 1010.27 1010.06 1010.31
1004.21 1004.76 1005.25 1005.83 1006.35 1006.99 1007.56 1007.80 1008.10 1008.35 1008.60 1009.06 1009.31 1009.69 1010.12 1010.57 1010.52 1009.71 1009.15 1008.82 1008.50 1008.63
Wind_Speed
15 11 10 10 6 7 5 5 5 5 4 4 4 3 2 2 1 3 2 2 3 2
14 14 12 10 10 8 5 4 6 6 5 6 5 5 4 3 3 3 3 2 3 5
16 16 13 11 11 10 8 8 7 8 7 7 7 6 6 4 5 5 4 4 4 4
16 16 15 13 13 12 11 10 10 9 8 9 8 8 7 7 5 7 6 6 6 6
16 16 16 15 15 14 13 13 12 11 11 10 10 9 9 9 8 9 9 9 8 9
18 17 17 17 16 15 14 14 14 13 12 12 11 11 10 10 10 11 11 10 10 10
19 19 18 16 15 16 15 15 15 14 13 13 13 12 12 11 11 12 12 12 12 12
18 17 17 16 16 15 15 15 15 15 15 14 13 12 14 13 13 13 14 13 13 14
18 18 17 16 15 15 15 15 15 16 16 16 13 12 13 13 13 14 14 14 15 14
18 19 18 17 16 16 16 15 15 16 16 17 16 11 12 15 15 14 15 15 14 15
19 19 18 17 17 16 15 16 15 16 16 15 14 13 15 15 17 15 17 17 18 18
21 20 19 18 17 16 15 15 15 16 16 16 15 14 16 13 15 16 18 17 18 19
18 19 18 18 17 15 15 15 15 15 15 16 16 14 17 16 13 15 14 15 17 15
18 17 17 16 15 15 15 14 14 15 14 15 15 15 17 19 15 13 13 13 13 12
Wind_Direction
207 208 212 203 220 209 215 187 150 192 226 223 182 162 165 172 61 91 103 71 351 315
203 218 207 201 205 206 214 178 193 200 205 206 194 196 187 223 200 193 209 166 227 275
204 207 210 202 204 218 202 223 195 211 202 196 199 210 213 207 186 212 218 236 211 250
205 205 209 209 208 212 215 209 213 214 213 204 207 211 218 248 240 224 225 232 225 225
205 206 207 212 209 211 214 215 220 220 221 219 218 220 222 233 239 227 231 230 229 229
207 208 213 209 212 211 213 217 220 221 225 225 226 227 229 238 244 240 238 237 231 231
210 211 214 215 211 212 212 217 220 223 226 228 230 232 236 237 242 248 243 241 241 234
206 211 215 214 213 215 215 217 223 223 227 231 230 230 232 238 242 243 248 245 240 240
202 204 208 213 211 211 217 218 221 226 228 231 233 221 213 240 247 244 248 250 249 243
203 204 205 209 214 214 215 218 221 226 228 231 235 219 206 210 238 254 255 252 253 252
205 208 205 206 211 213 215 218 222 226 229 231 233 206 210 206 234 245 250 254 253 251
203 203 204 208 209 212 217 219 222 227 229 228 235 200 205 203 233 240 246 249 248 250
205 206 206 205 208 211 216 222 226 228 228 232 236 205 203 204 234 240 244 245 249 232
204 206 206 207 206 208 217 228 220 232 228 231 229 232 201 203 229 242 245 248 255 256